Погода в Красной Ушне

Россия / Владимирская область     55°47′56″N   41°33′35″E
темп.,
°C
ветер,
м/с
пор.,
м/с
влажн.,
%
обл.,
%
осадки,
мм/ч
давл.,
гПа
погр.,
м
8 мая, сб
сб800:00+5ююз12695 0.0 101610
03:00+5ю2371100 0.0 101654
06:00+6ююв3972100 0.0 1015244
09:00+13ююв595499 0.0 1014976
12:00+12ююв5958100 0.0 10131206
15:00+14юв61151100 0.0 10101366
18:00+13юв61358100 0.0 10071239
21:00+10ююв61587100 1.3 10051044
9 мая, вс
вс900:00+11ююв61492100 0.5 1003798
03:00+11ю51196100 0.8 1003795
06:00+9юз41093100 0.1 1005638
09:00+8з3590100 0.2 1007567
12:00+6зсз5788100 0.1 1010577
15:00+5сз61083100 0.1 1013951
18:00+8сз5117597 0.1 10161193
21:00+6сз4117333 0.1 1019576
10 мая, пн
пн1000:00+3сз39884 0.0 1021191
03:00+2сз38913 0.0 1024163
06:00+4ссз39780 0.0 1026245
09:00+10с57490 0.0 10271197
12:00+13ссв46355 0.0 10281685
15:00+15ссв453338 0.0 10281781
18:00+13ссв36457 0.0 1029839
21:00+7св22710 0.0 103032
11 мая, вт
вт1100:00+5ссв24740 0.0 103164
03:00+4св36740 0.0 103197
06:00+6св39685 0.0 1032239
09:00+13всв58475 0.0 1032781
12:00+16всв57393 0.0 10311128
15:00+18всв56400 0.0 10291147
18:00+16в47532 0.0 1029803
21:00+10в3877100 0.0 1030143
12 мая, ср
ср1200:00+8всв3108414 0.0 1030191
03:00+7всв388556 0.0 1029168
06:00+9всв411735 0.0 1029297
09:00+16в585696 0.0 1028525
12:00+20в575597 0.0 10281002
15:00+22в5751100 0.0 10261417
18:00+20в48655 0.0 10251093
21:00+15в4128598 0.0 1025406